Content
SEND FEEDBACK

Daily
Averages
Monthly
Summary
Italy

FLORENCE - AIRPORT, ITALY


Home > Europe > Italy
Elevation: 125 feet     Latitude: 43 48N     Longitude: 011 12E

WEATHER
 
SELECT A DAY
Number of Records: 242,897;   Date Range: 7/1/96 - 8/31/14
 
SHARE

PRINT THIS DATA

[ ← Previous Day ]
WEATHER ALMANAC - OCTOBER 12, 2013
[ Next Day → ]
[ °C ]   °F
Weather ElementAverageHighLow
Temperature58.8 °F68 °F (3:20 pm)51.8 °F (11:50 pm)
Dewpoint52.7 °F57.2 °F (10:50 am)48.2 °F (6:20 pm)
Humidity81.9 %94 % (2:50 am)52 % (3:50 pm)
Barometer30.06 in30.18 in (11:20 pm)29.98 in (2:20 am)
Wind Speed3.6 mph10.4 mph (4:20 pm)
Weather ElementAverage
Visibility6.1 mi
Wind DirectionESE (116.9 °)

Weather ElementTotal
Precipitation---
Heating Degree Days5.1 (Base 65)
Growing Degree Days9.9 (Base 50)
Averaged from 45 records on October 12, 2013
WEATHER CONDITIONS BREAKOUT
WIND DIRECTION BREAKOUT
WEATHER BY HOUR - OCTOBER 12, 2013
[ °C ]   °F
Local TimeTemperatureDewpointHumidityBarometerVisibilityWind DirectionWind SpeedGust SpeedPrecipitationEventsConditions
12:50 AM57.2 °F51.8 °F82 %30.01 in6.2 miEast (80°)4.6 mphScattered Clouds
1:20 AM57.2 °F50.0 °F77 %30.01 in6.2 miVariable2.3 mphScattered Clouds
1:50 AM55.4 °F50.0 °F82 %30.01 in6.2 miCalmRainLight Rain
2:20 AM55.4 °F51.8 °F88 %29.98 in6.2 miNNE (20°)2.3 mphScattered Clouds
2:50 AM55.4 °F53.6 °F94 %29.98 in6.2 miVariable1.2 mphScattered Clouds
3:50 AM55.4 °F53.6 °F94 %29.98 in5.6 miCalmRainLight Rain
4:20 AM55.4 °F53.6 °F94 %29.98 in4.3 miWNW (290°)3.5 mphRainRain
4:50 AM55.4 °F53.6 °F94 %29.98 in5.6 miVariable1.2 mphRainLight Rain
5:20 AM53.6 °F51.8 °F94 %29.98 in6.2 miCalmRainLight Rain
5:50 AM55.4 °F51.8 °F88 %30.01 in6.2 miSouth (190°)1.2 mphRainLight Rain
6:20 AM55.4 °F53.6 °F94 %30.01 in6.2 miCalmRainLight Rain
6:50 AM55.4 °F53.6 °F94 %30.01 in6.2 miEast (90°)3.5 mphRainLight Rain
7:20 AM55.4 °F53.6 °F94 %30.01 in6.2 miVariable1.2 mphRainLight Rain
7:50 AM55.4 °F53.6 °F94 %30.01 in6.2 miWNW (300°)4.6 mphRainLight Rain
8:20 AM55.4 °F53.6 °F94 %30.01 in6.2 miWNW (300°)4.6 mphMostly Cloudy
8:50 AM55.4 °F53.6 °F94 %30.04 in6.2 miWNW (290°)3.5 mphMostly Cloudy
9:20 AM57.2 °F55.4 °F94 %30.04 in6.2 miCalmLight Drizzle
9:50 AM57.2 °F55.4 °F94 %30.04 in6.2 miVariable2.3 mphLight Drizzle
10:20 AM57.2 °F55.4 °F94 %30.04 in6.2 miVariable3.5 mphLight Drizzle
10:50 AM59.0 °F57.2 °F94 %30.06 in6.2 miSW (220°)3.5 mphMostly Cloudy
11:20 AM59.0 °F57.2 °F94 %30.06 in6.2 miVariable1.2 mphMostly Cloudy
11:50 AM59.0 °F57.2 °F94 %30.09 in6.2 miWNW (290°)3.5 mphMostly Cloudy
12:20 PM60.8 °F57.2 °F88 %30.09 in6.2 miNNW (330°)3.5 mphMostly Cloudy
12:50 PM60.8 °F57.2 °F88 %30.09 in6.2 miVariable2.3 mphScattered Clouds
1:20 PM62.6 °F55.4 °F77 %30.09 in6.2 miVariable2.3 mphScattered Clouds
1:50 PM64.4 °F55.4 °F73 %30.09 in6.2 miSouth (190°)4.6 mphMostly Cloudy
2:20 PM66.2 °F55.4 °F68 %30.06 in6.2 miSSW (200°)6.9 mphScattered Clouds
2:50 PM66.2 °F53.6 °F64 %30.06 in6.2 miVariable6.9 mphScattered Clouds
3:20 PM68.0 °F51.8 °F56 %30.06 in6.2 miSW (220°)9.2 mphScattered Clouds
3:50 PM68.0 °F50.0 °F52 %30.09 in6.2 miSW (220°)5.8 mphScattered Clouds
4:20 PM68.0 °F51.8 °F56 %30.09 in6.2 miSW (220°)10.4 mphMostly Cloudy
4:50 PM66.2 °F51.8 °F60 %30.09 in6.2 miWest (260°)6.9 mphMostly Cloudy
5:20 PM66.2 °F50.0 °F56 %30.09 in6.2 miWSW (250°)5.8 mphScattered Clouds
5:50 PM66.2 °F50.0 °F56 %30.09 in6.2 miSW (220°)6.9 mphPartly Cloudy
6:20 PM64.4 °F48.2 °F56 %30.09 in6.2 miSW (220°)6.9 mphPartly Cloudy
6:50 PM62.6 °F48.2 °F59 %30.12 inSSW (200°)4.6 mphClear
7:20 PM62.6 °F50.0 °F63 %30.12 inSW (230°)4.6 mphClear
7:50 PM57.2 °F50.0 °F77 %30.12 inVariable2.3 mphClear
8:50 PM53.6 °F50.0 °F88 %30.12 inEast (80°)4.6 mphClear
9:20 PM55.4 °F50.0 °F82 %30.15 in6.2 miEast (80°)3.5 mphPartly Cloudy
9:50 PM53.6 °F51.8 °F94 %30.15 in6.2 miEast (80°)5.8 mphMostly Cloudy
10:20 PM55.4 °F51.8 °F88 %30.15 in6.2 miEast (100°)3.5 mphMostly Cloudy
10:50 PM53.6 °F50.0 °F88 %30.15 in6.2 miVariable2.3 mphPartly Cloudy
11:20 PM53.6 °F50.0 °F88 %30.18 inEast (90°)2.3 mphClear
11:50 PM51.8 °F50.0 °F94 %30.18 inVariable1.2 mphClear
Hourly data recorded from LIRQ, located miles away from Florence - Airport, Italy







STORIES FROM OUR PARTNERS